This is the latest recevied weather packets stored in our database for station/object KE6LRO. If no packets are shown the sender has not sent any weather packets the latest 10 day(s).
| Time | Temp. | Humidity | Pressure | Rain* | Wind** | Luminosity | Snow |
|---|---|---|---|---|---|---|---|
| 1778162690 | 5.56° C | 93% | 1018.6 hPa | 0 mm | - | 66 W/m² | - |
| 1778162388 | 5.56° C | 94% | 1018.5 hPa | 0 mm | - | 53 W/m² | - |
| 1778162085 | 5° C | 94% | 1018.4 hPa | 0 mm | - | 42 W/m² | - |
| 1778161782 | 4.44° C | 95% | 1018.4 hPa | 0 mm | - | 34 W/m² | - |
| 1778161478 | 4.44° C | 95% | 1018.5 hPa | 0 mm | - | 30 W/m² | - |
| 1778161174 | 4.44° C | 95% | 1018.5 hPa | 0 mm | - | 29 W/m² | - |
| 1778160871 | 4.44° C | 96% | 1018.3 hPa | 0 mm | - | 29 W/m² | - |
| 1778160570 | 4.44° C | 96% | 1018.3 hPa | 0 mm | - | 28 W/m² | - |
| 1778160265 | 3.89° C | 97% | 1018.2 hPa | 0 mm | - | 28 W/m² | - |
| 1778159962 | 3.89° C | 97% | 1018.3 hPa | 0 mm | - | 27 W/m² | - |
| 1778159659 | 3.33° C | 97% | 1018.4 hPa | 0 mm | - | 24 W/m² | - |
| 1778159356 | 3.33° C | 97% | 1018.5 hPa | 0 mm | - | 21 W/m² | - |
| 1778159053 | 3.33° C | 97% | 1018.2 hPa | 0 mm | - | 19 W/m² | - |
| 1778158752 | 3.33° C | 97% | 1018.4 hPa | 0 mm | - | 17 W/m² | - |
| 1778158449 | 3.33° C | 97% | 1018.5 hPa | 0 mm | - | 15 W/m² | - |
| 1778158146 | 3.33° C | 97% | 1018.3 hPa | 0 mm | - | 14 W/m² | - |
| 1778157842 | 3.33° C | 97% | 1018.4 hPa | 0 mm | - | 13 W/m² | - |
| 1778157541 | 3.33° C | 97% | 1018.4 hPa | 0 mm | - | 11 W/m² | - |
| 1778157238 | 3.33° C | 97% | 1018.4 hPa | 0 mm | - | 10 W/m² | - |
| 1778156934 | 3.33° C | 97% | 1018.3 hPa | 0 mm | - | 8 W/m² | - |
| 1778156629 | 3.33° C | 97% | 1017.9 hPa | 0 mm | - | 6 W/m² | - |
| 1778156326 | 3.33° C | 97% | 1018.3 hPa | 0 mm | - | 4 W/m² | - |
| 1778156021 | 3.33° C | 97% | 1018.2 hPa | 0 mm | - | 2 W/m² | - |
| 1778155718 | 3.33° C | 96% | 1018.2 hPa | 0 mm | - | 1 W/m² | - |
| 1778155414 | 3.33° C | 96% | 1018.1 hPa | 0 mm | - | 1 W/m² | - |
* Rain latest hour (hover to see other rain measurements)
** Current wind speed in m/s (hover to see current wind gust speed)